Precipitable_Water
0.94 0.96 1.00 1.01 0.82 0.85 0.76 0.76 0.80 0.61 0.59 0.75 0.75 0.61 0.51 0.67 0.64 0.51 1.03 1.18 1.22 1.20 1.07 0.92 0.84 0.80 0.67 0.52 0.50 0.51 0.51 0.50 0.50 0.51 0.52 0.51 0.54 0.55 0.55 0.54 0.54 0.55 0.54 0.54 0.55 0.55 0.53 0.51 0.49
0.96 0.93 1.01 0.98 0.74 0.59 0.71 0.85 0.64 0.65 0.69 0.72 0.68 0.61 0.53 0.48 0.74 0.77 0.88 1.11 1.19 1.17 0.98 0.85 0.80 0.64 0.53 0.51 0.51 0.50 0.50 0.50 0.50 0.52 0.53 0.53 0.53 0.53 0.53 0.52 0.51 0.52 0.52 0.51 0.51 0.50 0.47 0.45 0.43
0.93 0.94 0.83 0.82 0.74 0.58 0.67 0.73 0.65 0.66 0.69 0.67 0.62 0.72 0.61 0.52 0.72 0.77 0.94 1.07 1.14 1.03 0.91 0.82 0.64 0.54 0.50 0.50 0.50 0.50 0.50 0.51 0.52 0.50 0.50 0.50 0.49 0.49 0.48 0.48 0.47 0.46 0.47 0.46 0.47 0.46 0.44 0.41 0.39
0.88 0.93 0.95 0.79 0.72 0.81 0.78 0.72 0.67 0.63 0.73 0.75 0.69 0.54 0.68 0.77 0.73 0.84 0.95 1.03 1.05 0.90 0.86 0.72 0.58 0.54 0.52 0.50 0.49 0.50 0.51 0.52 0.50 0.47 0.47 0.47 0.49 0.48 0.47 0.47 0.46 0.45 0.45 0.45 0.44 0.43 0.41 0.40 0.39
0.97 0.92 0.75 0.73 0.80 0.87 0.93 0.85 0.69 0.64 0.66 0.68 0.64 0.54 0.57 0.72 0.85 0.89 0.92 0.95 0.86 0.80 0.79 0.64 0.59 0.57 0.56 0.54 0.51 0.51 0.51 0.50 0.49 0.48 0.49 0.47 0.47 0.47 0.46 0.47 0.46 0.46 0.46 0.45 0.44 0.43 0.41 0.39 0.38
0.72 0.83 0.63 0.60 0.74 0.92 0.91 0.89 0.77 0.69 0.70 0.70 0.63 0.58 0.56 0.74 0.77 0.83 0.88 0.83 0.78 0.75 0.71 0.60 0.59 0.61 0.59 0.56 0.53 0.51 0.52 0.51 0.51 0.49 0.48 0.46 0.46 0.46 0.45 0.46 0.46 0.47 0.46 0.45 0.44 0.42 0.39 0.38 0.37
0.59 0.63 0.55 0.55 0.63 0.84 0.86 0.96 0.76 0.69 0.65 0.62 0.65 0.46 0.58 0.64 0.76 0.83 0.81 0.73 0.70 0.70 0.63 0.54 0.56 0.62 0.61 0.59 0.56 0.56 0.57 0.56 0.52 0.47 0.46 0.43 0.43 0.43 0.44 0.45 0.47 0.47 0.47 0.46 0.43 0.40 0.38 0.37 0.35
0.64 0.58 0.52 0.58 0.79 0.79 0.94 0.88 0.84 0.70 0.58 0.74 0.70 0.45 0.47 0.61 0.74 0.78 0.68 0.64 0.66 0.62 0.54 0.51 0.55 0.61 0.61 0.60 0.59 0.58 0.57 0.57 0.54 0.47 0.44 0.40 0.43 0.42 0.42 0.44 0.47 0.45 0.45 0.43 0.41 0.38 0.36 0.33 0.30
0.59 0.45 0.45 0.64 0.73 0.87 1.00 0.81 0.81 0.71 0.58 0.59 0.59 0.55 0.61 0.65 0.71 0.62 0.57 0.57 0.56 0.51 0.46 0.43 0.49 0.55 0.62 0.58 0.59 0.57 0.57 0.56 0.53 0.46 0.42 0.38 0.41 0.40 0.41 0.43 0.44 0.42 0.42 0.39 0.37 0.35 0.32 0.30 0.27
0.51 0.45 0.53 0.74 0.85 0.84 0.88 0.70 0.55 0.49 0.47 0.49 0.52 0.60 0.63 0.62 0.60 0.51 0.50 0.49 0.48 0.44 0.44 0.44 0.50 0.54 0.57 0.57 0.57 0.57 0.56 0.55 0.53 0.47 0.43 0.39 0.41 0.40 0.42 0.41 0.41 0.38 0.37 0.34 0.34 0.32 0.29 0.27 0.25
0.48 0.47 0.60 0.72 0.76 0.77 0.58 0.50 0.52 0.42 0.37 0.47 0.46 0.51 0.55 0.55 0.50 0.49 0.49 0.48 0.44 0.41 0.42 0.48 0.53 0.55 0.57 0.58 0.59 0.58 0.56 0.53 0.54 0.48 0.44 0.40 0.40 0.40 0.41 0.40 0.38 0.35 0.32 0.31 0.31 0.29 0.27 0.26 0.25
0.47 0.57 0.60 0.67 0.70 0.61 0.51 0.54 0.45 0.45 0.45 0.55 0.58 0.58 0.52 0.48 0.48 0.49 0.47 0.45 0.44 0.42 0.43 0.51 0.55 0.58 0.59 0.60 0.60 0.58 0.56 0.53 0.52 0.49 0.44 0.42 0.39 0.39 0.40 0.39 0.37 0.33 0.32 0.31 0.31 0.29 0.28 0.26 0.25
0.53 0.57 0.61 0.63 0.60 0.56 0.58 0.50 0.46 0.47 0.56 0.61 0.61 0.55 0.49 0.49 0.52 0.50 0.49 0.49 0.48 0.44 0.46 0.51 0.57 0.58 0.61 0.60 0.61 0.59 0.56 0.54 0.52 0.48 0.44 0.44 0.40 0.38 0.39 0.39 0.37 0.32 0.33 0.31 0.31 0.29 0.26 0.25 0.25
0.57 0.58 0.58 0.60 0.53 0.53 0.48 0.48 0.45 0.50 0.57 0.57 0.56 0.49 0.51 0.53 0.54 0.51 0.50 0.49 0.48 0.50 0.51 0.54 0.58 0.60 0.62 0.60 0.62 0.59 0.57 0.54 0.51 0.47 0.44 0.44 0.42 0.39 0.39 0.38 0.35 0.31 0.32 0.31 0.31 0.27 0.26 0.25 0.24
0.56 0.48 0.52 0.50 0.52 0.49 0.51 0.42 0.41 0.51 0.53 0.53 0.53 0.52 0.54 0.57 0.55 0.52 0.52 0.51 0.52 0.53 0.55 0.56 0.62 0.62 0.61 0.62 0.60 0.60 0.57 0.55 0.50 0.46 0.44 0.44 0.43 0.40 0.38 0.36 0.33 0.31 0.31 0.31 0.29 0.27 0.27 0.23 0.22
0.44 0.41 0.34 0.47 0.55 0.57 0.52 0.37 0.47 0.52 0.49 0.50 0.52 0.54 0.57 0.57 0.56 0.56 0.57 0.56 0.56 0.58 0.58 0.60 0.63 0.62 0.63 0.61 0.61 0.61 0.58 0.54 0.48 0.45 0.44 0.45 0.42 0.40 0.36 0.35 0.33 0.32 0.30 0.29 0.28 0.27 0.24 0.22 0.20
0.35 0.29 0.37 0.43 0.57 0.56 0.53 0.43 0.47 0.51 0.49 0.48 0.52 0.56 0.59 0.58 0.57 0.58 0.61 0.60 0.60 0.62 0.64 0.63 0.64 0.61 0.62 0.61 0.60 0.59 0.56 0.50 0.47 0.45 0.45 0.45 0.43 0.39 0.36 0.34 0.33 0.31 0.28 0.28 0.27 0.26 0.24 0.21 0.20
0.27 0.32 0.39 0.41 0.53 0.56 0.52 0.47 0.50 0.51 0.49 0.47 0.52 0.58 0.59 0.57 0.57 0.60 0.62 0.62 0.63 0.64 0.65 0.66 0.65 0.61 0.62 0.60 0.58 0.55 0.52 0.48 0.45 0.44 0.46 0.45 0.41 0.37 0.36 0.32 0.31 0.29 0.26 0.27 0.27 0.25 0.24 0.22 0.20
0.36 0.33 0.33 0.41 0.49 0.50 0.48 0.46 0.47 0.51 0.48 0.49 0.54 0.56 0.59 0.59 0.61 0.61 0.61 0.62 0.63 0.65 0.65 0.65 0.63 0.61 0.58 0.57 0.54 0.50 0.47 0.45 0.42 0.45 0.46 0.44 0.39 0.36 0.34 0.32 0.29 0.28 0.25 0.26 0.27 0.25 0.22 0.20 0.22
0.36 0.35 0.36 0.41 0.47 0.48 0.45 0.43 0.49 0.49 0.46 0.50 0.55 0.58 0.60 0.61 0.60 0.59 0.59 0.62 0.64 0.66 0.66 0.64 0.64 0.62 0.58 0.57 0.54 0.51 0.47 0.44 0.43 0.46 0.43 0.41 0.37 0.36 0.34 0.31 0.29 0.28 0.25 0.24 0.26 0.25 0.22 0.21 0.23
0.36 0.36 0.36 0.35 0.44 0.49 0.44 0.38 0.39 0.41 0.48 0.55 0.58 0.61 0.63 0.62 0.59 0.58 0.59 0.63 0.66 0.67 0.65 0.65 0.63 0.61 0.58 0.57 0.53 0.49 0.46 0.42 0.42 0.40 0.38 0.36 0.35 0.34 0.33 0.32 0.30 0.28 0.26 0.23 0.26 0.26 0.23 0.20 0.22
0.32 0.40 0.38 0.35 0.36 0.30 0.40 0.25 0.28 0.33 0.38 0.49 0.56 0.61 0.63 0.63 0.63 0.59 0.61 0.64 0.67 0.66 0.68 0.66 0.63 0.60 0.59 0.56 0.52 0.47 0.42 0.40 0.41 0.38 0.36 0.33 0.33 0.33 0.32 0.31 0.29 0.27 0.25 0.23 0.25 0.26 0.24 0.22 0.21
0.34 0.39 0.38 0.36 0.35 0.35 0.31 0.24 0.26 0.36 0.38 0.45 0.53 0.60 0.61 0.63 0.62 0.61 0.64 0.67 0.66 0.66 0.66 0.65 0.63 0.60 0.59 0.57 0.52 0.47 0.42 0.41 0.39 0.35 0.30 0.29 0.29 0.32 0.30 0.28 0.26 0.25 0.25 0.25 0.27 0.25 0.24 0.25 0.26
0.38 0.36 0.35 0.34 0.30 0.22 0.22 0.31 0.29 0.33 0.37 0.43 0.51 0.57 0.62 0.64 0.64 0.65 0.67 0.66 0.65 0.67 0.67 0.64 0.62 0.60 0.59 0.56 0.52 0.46 0.41 0.36 0.32 0.30 0.27 0.26 0.26 0.27 0.26 0.25 0.23 0.23 0.25 0.26 0.26 0.25 0.25 0.27 0.31
0.28 0.27 0.20 0.17 0.18 0.19 0.30 0.27 0.31 0.37 0.42 0.43 0.49 0.57 0.62 0.63 0.62 0.62 0.61 0.62 0.63 0.64 0.65 0.64 0.62 0.59 0.59 0.55 0.50 0.45 0.37 0.33 0.30 0.27 0.25 0.23 0.23 0.23 0.22 0.22 0.21 0.22 0.25 0.25 0.24 0.24 0.28 0.31 0.33
0.28 0.29 0.23 0.17 0.19 0.20 0.24 0.22 0.28 0.37 0.42 0.48 0.55 0.60 0.61 0.59 0.61 0.61 0.61 0.61 0.63 0.64 0.63 0.62 0.60 0.58 0.58 0.54 0.48 0.41 0.35 0.30 0.27 0.25 0.23 0.22 0.21 0.20 0.21 0.21 0.21 0.24 0.24 0.24 0.25 0.29 0.31 0.31 0.31
0.30 0.28 0.33 0.27 0.28 0.22 0.22 0.29 0.38 0.41 0.41 0.45 0.48 0.53 0.54 0.57 0.59 0.59 0.61 0.62 0.62 0.63 0.63 0.61 0.59 0.59 0.57 0.51 0.44 0.37 0.32 0.27 0.24 0.22 0.21 0.20 0.19 0.19 0.20 0.21 0.21 0.22 0.23 0.25 0.29 0.29 0.30 0.30 0.31
0.32 0.33 0.23 0.24 0.19 0.18 0.22 0.23 0.27 0.33 0.36 0.43 0.46 0.51 0.54 0.57 0.57 0.60 0.61 0.61 0.63 0.63 0.63 0.62 0.60 0.59 0.56 0.49 0.39 0.34 0.28 0.25 0.23 0.21 0.19 0.18 0.18 0.19 0.19 0.20 0.21 0.23 0.24 0.30 0.29 0.28 0.30 0.30 0.31
0.29 0.27 0.29 0.29 0.27 0.23 0.21 0.24 0.37 0.35 0.39 0.42 0.48 0.53 0.55 0.55 0.57 0.59 0.60 0.61 0.61 0.64 0.64 0.60 0.61 0.59 0.53 0.43 0.36 0.31 0.27 0.23 0.22 0.20 0.18 0.17 0.18 0.19 0.19 0.21 0.22 0.24 0.27 0.30 0.29 0.29 0.30 0.30 0.31
0.33 0.30 0.30 0.25 0.24 0.26 0.25 0.23 0.40 0.39 0.43 0.46 0.50 0.55 0.58 0.57 0.58 0.59 0.59 0.60 0.61 0.62 0.62 0.62 0.61 0.57 0.45 0.38 0.34 0.30 0.24 0.22 0.20 0.19 0.17 0.18 0.17 0.19 0.19 0.22 0.23 0.26 0.29 0.30 0.29 0.29 0.30 0.30 0.30
Wind_Speed
5 8 7 3 3 2 2 0 2 3 6 7 7 6 5 6 6 5 2 3 2 4 6 9 11 13 15 17 17 18 19 21 22 22 23 24 24 25 25 26 26 26 26 25 25 25 26 27 27
6 8 4 1 3 2 2 3 6 5 4 6 8 6 8 6 5 1 2 2 2 5 7 9 11 14 15 16 18 19 20 22 23 24 24 25 26 26 27 27 27 27 27 26 26 26 27 28 28
7 7 1 0 3 1 2 3 4 4 3 5 6 8 7 5 4 2 1 2 3 6 7 10 12 14 15 17 18 20 21 23 24 25 26 26 27 28 28 28 28 28 28 27 27 28 28 29 30
7 5 2 1 5 5 6 3 2 2 5 7 5 8 8 6 5 1 1 2 5 6 8 10 12 14 15 17 20 21 23 24 25 26 27 28 29 29 29 29 30 29 29 29 29 29 30 31 32
6 3 4 2 4 1 3 1 1 4 5 3 6 7 7 7 3 1 2 4 5 7 9 10 12 14 16 18 21 22 24 25 27 28 29 29 30 30 31 30 31 31 30 30 30 31 32 33 33
4 3 4 7 9 6 3 3 3 3 4 4 6 6 7 4 2 3 4 5 6 8 10 11 12 14 17 19 21 23 24 26 28 30 31 31 31 32 32 32 32 32 32 32 32 32 33 34 35
7 5 7 11 10 6 5 5 3 5 6 7 3 8 6 4 3 4 5 6 8 9 10 11 13 15 18 20 23 24 26 28 30 32 32 32 32 33 33 33 33 33 33 33 33 34 35 36 36
9 6 11 11 3 5 6 4 4 6 9 4 5 7 8 6 4 5 6 8 9 11 11 12 14 16 19 21 23 25 27 29 31 33 33 33 34 34 34 34 34 34 34 34 34 35 36 37 37
10 9 13 9 5 8 5 3 7 7 6 9 10 8 6 3 5 5 7 8 10 11 12 13 15 17 20 22 24 26 29 30 32 34 34 35 35 36 35 35 35 35 35 35 36 37 38 38 39
7 8 10 7 2 6 5 5 8 8 7 9 8 6 3 4 6 7 8 10 11 11 13 15 17 19 21 23 25 28 30 31 32 34 36 36 36 36 36 36 36 36 36 37 38 38 39 39 39
13 12 8 6 5 5 7 7 10 6 9 9 5 5 5 6 8 9 10 10 11 12 14 16 18 20 22 24 26 29 31 32 33 35 37 37 37 38 37 37 37 37 37 37 38 39 39 39 39
12 11 9 9 8 9 9 8 10 11 13 7 6 7 8 9 10 11 9 10 12 14 15 17 19 21 24 26 28 30 32 33 34 36 38 38 39 38 38 38 38 39 38 39 39 39 39 39 38
12 11 9 10 11 10 9 10 10 9 6 6 7 9 10 10 11 10 11 12 14 15 17 19 21 23 25 27 28 31 33 34 35 36 38 39 39 39 39 38 38 39 39 39 39 39 39 39 39
10 9 11 11 11 11 11 12 12 11 7 8 9 11 12 12 12 12 13 14 15 17 18 20 22 24 26 28 29 32 34 35 36 37 39 40 40 40 39 39 39 39 39 39 39 39 40 40 39
13 13 13 13 13 13 12 13 12 11 10 11 12 13 14 13 12 13 14 15 16 17 20 21 23 25 27 28 31 32 35 36 36 37 39 40 40 40 40 39 39 40 40 39 40 40 40 40 38
13 13 14 16 14 15 13 17 16 14 12 13 14 15 14 14 14 14 16 17 18 19 21 22 24 26 27 30 32 34 36 36 37 38 39 40 40 40 39 39 39 40 40 40 40 40 39 39 36
14 14 16 15 17 14 14 18 16 15 14 15 16 16 16 14 14 16 18 19 19 20 21 23 25 27 28 31 33 35 36 37 38 39 40 40 41 40 39 39 39 40 40 41 40 40 40 38 36
16 15 15 14 18 15 16 16 14 15 17 18 17 17 17 16 16 16 17 17 19 20 22 24 25 27 29 31 33 35 36 37 38 39 40 40 40 39 38 39 39 40 41 41 40 39 39 37 35
18 19 19 15 15 16 18 18 19 19 20 19 18 18 18 17 16 16 16 17 19 21 23 24 26 27 30 32 33 35 36 37 38 39 39 40 39 39 38 39 40 41 41 41 40 38 37 37 34
21 21 17 14 14 15 20 21 21 22 25 24 22 21 18 18 16 16 16 17 20 21 24 25 25 27 30 31 33 34 37 36 38 39 40 39 39 38 38 39 41 41 41 41 39 37 36 34 33
15 15 15 17 15 17 18 22 23 21 25 26 25 21 19 18 18 18 17 19 20 22 23 25 25 26 29 31 33 35 36 37 39 38 38 37 37 37 38 40 41 41 41 41 37 36 35 34 32
16 17 16 17 15 18 16 25 25 24 24 22 21 20 19 20 19 19 18 19 21 22 23 24 25 27 29 31 34 35 36 38 38 37 36 36 37 37 39 41 42 41 41 39 36 35 35 34 30
16 14 15 16 19 19 22 23 25 22 20 19 18 18 19 19 18 17 18 20 21 21 23 24 25 27 29 32 34 35 37 37 36 36 36 36 37 38 40 42 42 41 40 37 35 36 35 31 30
15 15 16 17 17 19 23 16 25 22 15 14 16 16 15 15 16 16 18 19 21 21 23 25 25 27 30 32 34 36 36 36 35 36 36 36 37 39 41 41 41 39 38 35 36 35 33 31 29
14 13 15 16 14 18 18 16 15 14 15 16 14 13 14 14 14 16 17 20 20 21 23 24 25 27 30 32 34 35 35 35 35 36 36 37 38 40 40 40 39 38 36 36 36 34 32 30 28
12 10 11 14 14 19 17 16 16 15 13 11 9 10 11 12 14 16 18 19 20 21 23 24 24 27 30 33 33 33 34 34 35 35 36 37 39 39 39 38 38 37 36 36 35 34 31 30 29
12 11 14 16 16 17 17 13 12 12 12 9 7 8 10 13 15 16 18 20 20 21 23 23 25 28 30 31 32 33 34 34 34 35 36 37 38 38 38 37 37 36 36 36 34 32 30 30 27
12 13 13 14 14 16 17 20 14 14 14 12 11 11 11 13 14 17 18 18 19 20 22 24 26 27 29 30 31 32 33 33 33 35 36 37 37 37 37 37 35 36 37 35 33 32 31 29 26
12 12 12 12 13 15 17 18 16 17 16 15 14 12 13 14 16 17 17 18 19 20 23 24 26 28 28 30 30 31 32 32 33 35 36 36 36 36 36 35 35 36 36 33 33 32 31 27 24
13 13 12 13 19 18 18 23 20 18 15 14 13 13 14 15 15 16 17 19 20 22 23 25 26 27 28 29 29 31 31 32 33 34 34 35 35 35 36 34 35 36 34 32 33 32 29 25 23
Wind_Direction
147 150 144 104 53 70 323 290 58 15 356 353 11 31 37 8 341 334 23 52 41 19 7 2 360 356 355 353 352 350 349 348 345 342 339 337 335 333 330 328 325 322 319 317 315 312 309 307 305
157 154 152 39 46 318 333 122 39 25 51 57 42 30 10 360 352 355 359 64 33 8 356 355 355 354 353 353 352 350 348 346 344 341 338 336 334 332 331 328 325 322 319 316 314 312 310 307 305
168 170 138 47 305 256 187 100 60 55 87 10 9 19 6 11 34 23 66 56 2 352 350 350 350 351 352 353 351 349 347 345 343 340 338 336 334 331 330 328 326 323 320 316 314 312 310 308 305
164 174 256 50 358 323 166 103 46 30 33 6 28 11 3 350 346 354 358 337 334 338 343 346 347 349 351 351 349 347 345 344 342 340 338 335 333 332 330 328 326 323 320 317 315 313 310 309 307
182 205 264 258 281 207 169 200 310 344 355 19 350 351 356 356 21 41 343 337 331 330 333 337 341 344 346 346 347 345 344 343 342 340 337 335 333 332 330 328 327 324 321 318 315 313 311 309 307
206 243 296 285 281 248 235 242 292 21 25 4 357 354 343 346 347 327 319 324 329 325 327 329 333 338 341 342 343 343 343 342 340 339 337 335 333 331 330 328 327 324 321 319 316 313 312 310 308
216 273 278 299 249 239 226 249 284 336 325 330 335 339 330 326 320 319 321 321 322 323 321 323 327 331 335 337 339 339 340 339 338 338 337 335 333 331 329 328 326 324 322 319 317 314 313 311 309
241 265 291 314 250 240 232 274 302 319 331 334 319 319 311 298 298 310 314 315 319 321 322 320 323 325 329 332 334 335 336 336 336 336 335 334 332 331 329 327 326 325 322 320 318 316 314 313 310
248 266 283 291 240 243 220 271 320 315 316 324 310 314 311 276 293 303 308 312 316 319 320 325 326 326 326 329 331 333 334 335 335 335 335 333 332 331 329 328 326 325 323 321 319 317 316 314 312
236 252 284 280 230 210 234 272 291 299 323 327 337 341 314 287 288 297 303 308 312 315 317 320 323 324 329 329 330 331 333 334 335 335 335 333 332 331 329 328 326 325 323 321 320 318 317 316 314
260 243 270 263 254 252 263 281 287 276 296 292 282 303 296 288 293 298 302 306 311 314 315 319 322 324 326 328 329 330 332 332 333 334 333 333 331 330 329 328 327 325 323 322 321 320 319 318 317
243 252 258 267 264 268 262 273 285 281 291 272 279 290 293 291 292 299 304 310 314 314 315 316 320 322 324 326 328 329 330 331 331 333 333 333 331 330 329 328 327 326 324 323 322 322 321 320 318
253 243 258 266 265 271 264 277 285 291 298 286 287 288 290 292 295 298 301 308 310 311 313 315 319 321 323 325 326 328 329 330 330 332 332 333 332 331 329 328 327 326 325 325 324 324 323 322 320
246 256 256 266 268 267 271 277 286 280 280 284 284 287 289 291 296 300 300 303 307 309 311 313 318 320 322 324 325 327 329 329 330 331 332 332 332 331 329 328 328 328 327 327 326 325 325 324 322
255 259 264 264 263 266 274 280 273 263 271 276 282 283 288 292 295 297 298 303 307 308 310 312 316 319 322 323 325 326 328 328 329 330 331 331 331 330 329 328 329 329 329 328 327 327 326 325 324
253 260 262 260 251 264 261 282 271 259 268 273 279 283 285 291 294 296 297 301 305 307 310 314 315 318 320 323 323 324 326 327 328 329 330 331 331 330 330 329 330 330 329 329 328 328 328 327 326
256 265 264 270 249 259 261 282 276 257 269 273 276 281 284 291 295 297 296 299 303 307 309 312 315 318 320 323 325 326 326 327 327 328 330 330 331 330 330 330 330 331 330 329 329 328 328 327 325
257 256 272 262 259 261 263 279 272 266 269 272 275 278 280 285 291 294 296 299 304 309 310 311 314 318 321 322 324 326 326 327 327 328 329 329 330 330 330 331 331 331 330 330 329 328 329 328 326
260 265 271 272 268 252 258 269 272 272 274 274 272 273 274 281 287 292 296 300 305 310 311 312 314 317 320 323 324 326 326 326 326 328 328 329 330 330 330 331 331 332 331 330 329 328 329 329 327
258 262 272 278 265 264 268 276 279 273 272 269 268 270 270 281 283 290 294 299 304 310 313 314 314 317 320 323 325 325 327 327 328 328 329 328 329 330 330 331 332 331 331 330 330 329 329 328 328
260 258 270 276 261 270 280 285 286 287 275 269 270 266 266 268 276 287 290 299 305 311 313 315 316 318 321 324 326 326 327 327 328 328 328 329 330 331 331 332 332 331 331 331 329 330 330 327 326
268 266 270 281 264 271 276 289 289 289 285 263 260 258 262 269 276 285 289 298 305 310 313 316 317 319 322 326 327 329 329 328 329 329 330 331 332 333 332 332 332 332 332 331 330 330 329 328 326
268 274 275 277 279 287 287 289 293 293 289 272 259 259 264 266 273 280 289 298 305 309 313 317 318 320 323 326 329 329 329 329 330 331 331 331 332 333 333 332 332 332 332 332 331 330 330 328 326
264 269 277 278 277 280 282 286 293 298 288 271 267 266 262 267 272 281 290 299 306 309 313 317 318 321 324 327 329 330 331 332 333 333 332 332 332 332 333 333 334 333 333 333 332 331 330 329 326
266 273 280 282 279 274 291 298 302 311 310 288 271 266 266 266 271 281 293 301 305 309 313 316 318 321 324 327 329 331 333 334 334 334 334 334 334 333 334 335 335 335 335 334 334 332 331 330 330
257 258 266 276 287 288 300 290 297 303 314 315 286 266 264 270 277 286 294 299 304 308 312 316 319 322 325 327 330 332 333 334 334 335 335 335 335 334 335 337 337 337 336 336 335 334 333 332 329
279 270 276 279 284 294 290 297 297 302 304 305 286 271 271 276 282 291 297 301 304 309 314 316 319 323 326 328 330 333 334 335 336 336 336 336 336 337 338 338 339 339 338 337 337 337 335 333 332
274 283 293 288 289 286 294 297 284 285 286 289 288 285 280 285 289 296 300 303 308 312 316 317 320 324 326 330 332 333 335 336 337 337 338 338 339 340 340 340 341 340 340 340 340 339 337 336 335
292 287 281 281 278 284 294 294 286 280 279 281 283 284 285 285 294 299 302 306 310 313 315 317 321 324 326 331 332 334 336 337 338 338 339 340 341 341 342 342 342 342 342 342 342 341 340 339 339
285 285 284 286 287 282 284 292 294 285 282 281 285 289 289 293 299 302 306 308 311 314 316 318 320 323 328 330 332 335 336 338 339 340 341 342 343 343 344 344 344 345 345 345 345 344 344 344 343